Location: Krasnoyarskiy Pitomnik
(51.1333°N, 71.6167°E)
Time: 09:34:44
(UTC+00:00)

BREEZE-M DEB (TANK) - Pass Details

Date: 22 October 2021
Orbit: 337 x 14797 km, 49.5° (Epoch: 06 December)

Event Time Altitude Azimuth Distance (km) Brightness Sun altitude
Rises 13:22:48 0° 277° (W) 6,342 10.3 -12.6°
Reaches altitude 10° 13:28:38 10° 276° (W) 3,776 8.7 -13.5°
Maximum altitude 13:35:50 64° 197° (SSW) 692 3.5 -14.7°
Enters shadow 13:37:32 25° 121° (ESE) 1,019 3.9 -14.9°
